Hayward, WI

10:59 AM CST on November 18, 2019 (GMT -0600)
Sawyer County

Weather History for KHYR - September, 2019

Change the Weather History Date:

Monday, September 2, 2019

  Actual Average Record
Temperature  
Mean Temperature 62 °F -  
Max Temperature 71 °F 70 °F 87 °F (1999)
Min Temperature 55 °F 45 °F 37 °F (1997)
Degree Days  
Heating Degree Days 2    
Growing Degree Days 12 (Base 50)    
Moisture  
Dew Point 55 °F    
Average Humidity 82    
Maximum Humidity 94    
Minimum Humidity 55    
Precipitation  
Precipitation 0.78 in - - ()
Sea Level Pressure  
Sea Level Pressure 30.05 in    
Wind  
Wind Speed 4 mph (NNE)    
Max Wind Speed 20 mph    
Max Gust Speed 26 mph    
Visibility 7 miles    
Events Rain , Thunderstorm    
Averages and records for this station are not official NWS values.
T = Trace of Precipitation, MM = Missing Value Source: NWS Daily Summary

Daily Weather History Graph

Daily Weather History Graph

Search for Another Location

Airport or City:

Astronomy

Sep. 02, 2019 Rise Set
Actual Time 6:27 AM CDT 7:42 PM CDT
Civil Twilight 5:56 AM CDT 8:13 PM CDT
Nautical Twilight 5:19 AM CDT 8:50 PM CDT
Astronomical Twilight 4:39 AM CDT 9:29 PM CDT
Moon 10:21 AM CDT (9/2) 9:51 PM CDT (9/2)
Length of Visible Light 14h 16m
Length of Day
13h 15m
Waxing Crescent, 15% of the Moon is Illuminated
Sep 2
Waxing Crescent
Sep 5
First Quarter
Sep 13
Full
Sep 21
Last Quarter
Sep 28
New

Hourly Weather History & Observations

Time (CDT) Temp. Dew Point Humidity Pressure Visibility Wind Dir Wind Speed Gust Speed Precip Events Conditions
12:53 AM 59.0 °F 57.0 °F 93% 30.08 in 6.0 mi Calm Calm - N/A   Overcast
1:53 AM 60.1 °F 57.9 °F 93% 30.08 in 3.0 mi SSW 3.5 mph - N/A   Overcast
2:08 AM 60.1 °F 57.9 °F 93% 30.08 in 5.0 mi Calm Calm - N/A   Overcast
2:28 AM 61.0 °F 59.0 °F 93% 30.08 in 3.0 mi Calm Calm - 0.00 in Rain Light Rain
2:41 AM 62.1 °F 59.0 °F 90% 30.08 in 2.5 mi Calm Calm - 0.02 in Rain Light Rain
2:53 AM 61.0 °F 59.0 °F 93% 30.08 in 3.0 mi Calm Calm - 0.02 in Rain Light Rain
3:10 AM 61.0 °F 59.0 °F 93% 30.07 in 7.0 mi Calm Calm - 0.00 in   Overcast
3:23 AM 62.1 °F 59.0 °F 90% 30.07 in 8.0 mi Calm Calm - 0.00 in   Overcast
3:53 AM 61.0 °F 59.0 °F 93% 30.08 in 7.0 mi Calm Calm - 0.00 in   Overcast
4:15 AM 61.0 °F 59.0 °F 93% 30.08 in 9.0 mi Calm Calm - N/A   Overcast
4:40 AM 61.0 °F 57.9 °F 90% 30.09 in 9.0 mi NNW 3.5 mph - N/A   Overcast
4:53 AM 61.0 °F 57.9 °F 90% 30.09 in 10.0 mi North 3.5 mph - N/A   Overcast
5:07 AM 61.0 °F 57.9 °F 90% 30.09 in 10.0 mi Calm Calm - N/A   Overcast
5:31 AM 61.0 °F 57.9 °F 90% 30.10 in 10.0 mi North 4.6 mph - N/A   Overcast
5:53 AM 61.0 °F 57.9 °F 90% 30.11 in 10.0 mi North 3.5 mph - N/A   Overcast
6:15 AM 60.1 °F 57.0 °F 90% 30.11 in 10.0 mi North 5.8 mph - N/A   Overcast
6:53 AM 59.0 °F 55.9 °F 90% 30.13 in 10.0 mi North 4.6 mph - N/A   Scattered Clouds
7:04 AM 59.0 °F 55.9 °F 90% 30.13 in 10.0 mi NNE 4.6 mph - N/A   Mostly Cloudy
7:11 AM 57.9 °F 55.9 °F 93% 30.13 in 10.0 mi North 6.9 mph - N/A   Partly Cloudy
7:53 AM 59.0 °F 55.0 °F 87% 30.14 in 10.0 mi NNE 9.2 mph - N/A   Partly Cloudy
8:53 AM 61.0 °F 54.0 °F 78% 30.15 in 10.0 mi North 10.4 mph - N/A   Mostly Cloudy
9:19 AM 62.1 °F 53.1 °F 72% 30.15 in 10.0 mi NNE 9.2 mph - N/A   Mostly Cloudy
9:53 AM 62.1 °F 53.1 °F 72% 30.16 in 10.0 mi NNE 6.9 mph - N/A   Mostly Cloudy
10:35 AM 64.0 °F 52.0 °F 65% 30.16 in 10.0 mi NE 8.1 mph - N/A   Scattered Clouds
10:53 AM 64.0 °F 53.1 °F 67% 30.15 in 10.0 mi NE 8.1 mph - N/A   Clear
11:53 AM 66.0 °F 53.1 °F 63% 30.16 in 10.0 mi ENE 6.9 mph - N/A   Scattered Clouds
12:53 PM 66.9 °F 52.0 °F 59% 30.14 in 10.0 mi North 5.8 mph - N/A   Partly Cloudy
1:53 PM 69.1 °F 53.1 °F 57% 30.12 in 10.0 mi East 4.6 mph - N/A   Scattered Clouds
2:53 PM 70.0 °F 53.1 °F 55% 30.09 in 10.0 mi East 5.8 mph - N/A   Partly Cloudy
3:53 PM 69.1 °F 53.1 °F 57% 30.09 in 10.0 mi NE 6.9 mph - N/A   Partly Cloudy
4:53 PM 70.0 °F 54.0 °F 57% 30.07 in 10.0 mi ENE 6.9 mph - N/A   Clear
5:53 PM 68.0 °F 54.0 °F 61% 30.05 in 10.0 mi ENE 5.8 mph - N/A   Clear
6:53 PM 64.0 °F 54.0 °F 70% 30.03 in 10.0 mi ENE 5.8 mph - N/A   Clear
7:53 PM 62.1 °F 53.1 °F 72% 30.01 in 10.0 mi ENE 4.6 mph - N/A   Clear
8:53 PM 61.0 °F 52.0 °F 72% 29.98 in 10.0 mi ENE 5.8 mph - N/A   Scattered Clouds
9:53 PM 61.0 °F 53.1 °F 75% 29.93 in 10.0 mi ENE 6.9 mph - N/A   Overcast
10:53 PM 60.1 °F 54.0 °F 80% 29.87 in 7.0 mi ENE 9.2 mph - 0.02 in Rain , Thunderstorm Light Rain
11:02 PM 59.0 °F 54.0 °F 83% 29.89 in 5.0 mi NNE 9.2 mph - 0.03 in Rain , Thunderstorm Thunderstorms and Rain
11:06 PM 59.0 °F 54.0 °F 83% 29.89 in 1.8 mi NNE 11.5 mph - 0.16 in Rain , Thunderstorm Heavy Thunderstorms and Rain
11:13 PM 57.9 °F 54.0 °F 87% 29.87 in 0.8 mi NNE 16.1 mph - 0.34 in Rain , Thunderstorm Heavy Thunderstorms and Rain
11:17 PM 57.9 °F 55.0 °F 90% 29.89 in 1.2 mi NNE 12.7 mph - 0.37 in Rain , Thunderstorm Heavy Thunderstorms and Rain
11:23 PM 57.0 °F 55.0 °F 93% 29.90 in 2.0 mi NNE 13.8 mph 24.2 mph 0.41 in Rain , Thunderstorm Heavy Thunderstorms and Rain
11:30 PM 55.9 °F 54.0 °F 93% 29.89 in 1.8 mi NNE 19.6 mph 26.5 mph 0.47 in Rain , Thunderstorm Heavy Rain
11:44 PM 55.9 °F 54.0 °F 93% 29.93 in 1.2 mi North 12.7 mph 20.7 mph 0.60 in Rain , Thunderstorm Heavy Rain
11:49 PM 55.4 °F 53.6 °F 94% 29.96 in 1.0 mi NNW 10.4 mph 20.7 mph 0.66 in Rain Heavy Rain
11:53 PM 55.9 °F 54.0 °F 93% 29.96 in 0.8 mi NNW 9.2 mph 19.6 mph 0.74 in Rain Heavy Rain